Location: Riddle Hill
(39.7867°N, 89.7645°W)
Time: 20:31:40
(UTC+00:00)

USA 307 - Pass Details

Date: 29 October 2020
Orbit: 569 x 579 km, 54.0° (Epoch: 30 November)

Event Time Altitude Azimuth Distance (km) Brightness Sun altitude
Rises 23:24:48 0° 317° (NW) 2,790 6.9 -5.4°
Reaches altitude 10° 23:27:33 10° 334° (NNW) 1,887 5.7 -6.0°
Maximum altitude 23:30:47 20° 23° (NNE) 1,337 4.5 -6.6°
Drops below altitude 10° 23:34:01 10° 72° (ENE) 1,877 4.9 -7.2°
Enters shadow 23:34:17 - 74° (ENE) 1,958 4.9 -7.2°
